Theta_e
291 292 292 293 294 294 294 294 296 296 296 296 296 296 296 296 296 296 297 297 297 296 297 297 297 298 298 298 297 296 296 295 295 295 296 296 296 296 296 296 295 295 295 295 295 295 295 295 295 294 294 294 294 294 294 294 294 294 293 293 293 293 292 292 292 292 292 292 292
291 291 292 294 295 295 295 294 295 295 296 296 296 296 296 296 296 296 296 297 297 297 297 297 297 297 297 297 297 296 296 296 295 295 296 296 296 296 296 296 296 296 295 295 295 295 295 295 295 294 294 294 294 294 294 294 294 294 293 293 293 293 293 292 292 292 292 292 292
291 291 291 291 292 292 292 293 294 294 295 295 295 295 295 295 295 296 296 296 297 297 297 296 297 297 297 297 296 296 296 296 296 295 295 295 296 296 296 296 296 296 296 296 296 295 295 295 295 295 294 294 294 294 294 294 295 294 294 293 293 293 293 292 292 292 292 292 292
290 290 290 290 291 291 292 293 294 294 295 295 294 294 294 294 294 295 295 296 296 296 296 296 296 297 297 297 297 296 296 296 296 296 295 295 295 296 296 296 296 296 296 296 296 296 296 296 295 295 295 295 294 294 294 294 295 294 294 294 294 293 293 292 293 293 292 292 292
291 290 291 291 292 292 292 293 293 293 294 294 293 293 293 294 294 294 295 295 295 295 296 296 296 296 296 296 296 295 295 295 296 296 296 296 296 296 296 296 295 296 296 296 296 296 296 296 295 295 295 295 295 295 295 295 295 294 294 294 294 294 293 293 293 293 293 293 293
292 292 292 291 291 291 291 292 292 292 292 292 292 292 293 294 294 294 294 294 295 295 295 295 295 295 296 296 295 295 295 295 295 295 295 295 296 296 296 295 295 295 296 296 296 296 295 295 295 295 295 295 295 295 295 295 295 295 294 294 294 294 294 293 293 293 293 293 293
291 292 292 292 291 291 291 291 291 291 291 291 291 292 293 294 294 294 294 294 294 294 294 294 294 294 294 294 294 294 295 295 295 295 295 295 295 295 295 295 295 295 295 295 295 295 295 295 295 294 295 295 295 295 295 295 295 294 294 294 294 294 294 294 294 294 293 293 293
291 291 291 292 292 292 292 292 291 291 291 292 292 293 293 293 293 293 293 293 293 293 293 294 293 293 293 293 293 293 294 294 295 295 295 295 295 295 294 295 295 295 295 295 295 295 295 295 295 294 294 295 295 295 295 295 295 294 294 294 294 294 294 294 294 294 293 293 292
291 291 292 292 292 292 292 292 291 291 292 292 293 293 293 293 293 293 293 293 294 294 294 293 293 293 292 292 292 293 293 294 294 295 295 295 295 294 294 295 294 295 295 295 295 295 295 294 294 294 294 294 294 295 295 295 294 294 293 294 294 294 294 295 294 294 293 293 292
292 292 292 292 292 293 292 292 292 292 292 292 292 293 293 294 294 294 294 293 294 294 294 293 293 293 293 292 293 293 293 294 294 294 295 295 295 295 295 295 295 295 295 295 295 295 294 294 294 294 294 294 294 294 294 295 294 293 293 293 293 294 294 294 294 294 293 293 292
291 292 292 292 293 293 292 292 292 293 293 293 293 293 293 294 293 293 293 293 293 293 293 293 293 293 293 293 293 294 294 294 294 295 295 295 295 295 295 295 295 294 294 295 295 295 294 294 293 293 293 294 294 294 294 293 293 292 292 293 293 293 293 293 293 293 293 293 292
291 291 292 292 292 292 292 292 293 293 293 293 293 293 293 293 293 293 293 293 292 293 293 293 293 293 293 293 294 294 295 294 294 294 294 294 294 294 294 294 294 294 294 294 294 294 294 294 293 293 293 293 293 293 293 293 292 292 291 292 292 292 292 292 292 293 293 293 292
291 291 292 292 292 292 292 292 292 293 293 293 293 293 294 294 294 294 294 293 293 293 294 294 294 293 293 293 294 294 294 294 294 294 294 294 294 294 294 294 294 293 293 293 293 293 293 293 293 292 292 292 292 293 293 292 291 291 291 291 291 291 291 291 292 292 292 292 292
291 291 291 292 292 292 292 292 293 293 293 293 293 294 294 294 294 294 294 293 293 294 294 294 294 295 294 294 294 295 294 294 294 294 294 294 294 294 294 294 293 293 292 293 293 293 292 292 292 292 292 291 291 292 292 292 291 291 290 290 290 290 290 291 291 291 291 291 290
291 291 291 292 292 292 292 292 292 293 293 293 294 294 294 294 294 295 294 294 294 294 294 294 294 295 295 295 294 294 294 294 294 293 293 293 293 293 293 293 293 292 292 292 292 292 292 292 292 291 291 291 290 291 291 291 291 290 290 290 290 290 290 290 291 290 290 289 289
291 292 292 292 292 292 292 292 293 293 293 293 294 294 294 294 294 294 294 294 294 294 294 294 294 295 295 295 294 294 294 293 293 293 293 293 293 293 293 293 292 292 291 291 291 292 292 292 292 291 291 290 290 290 290 290 290 290 290 290 290 290 290 290 290 290 289 289 289
291 292 292 292 292 292 292 292 292 293 293 293 293 293 293 293 294 294 294 294 294 294 294 294 294 294 294 294 294 294 294 293 293 293 293 293 293 292 292 292 292 291 290 290 291 291 291 292 292 291 290 289 289 289 289 288 289 289 289 290 290 290 290 290 289 289 288 288 289
292 292 292 292 292 292 292 292 292 293 293 293 293 293 293 293 293 293 293 294 294 293 293 293 293 293 293 293 294 293 293 293 293 293 293 293 293 292 292 292 292 291 290 289 290 290 291 291 291 291 291 290 289 289 288 288 288 289 289 289 289 289 289 289 288 288 288 288 289
292 292 292 292 292 292 292 292 292 292 292 293 293 293 293 293 292 292 292 293 293 293 293 292 293 293 293 293 293 293 293 293 293 293 293 293 293 292 292 291 291 290 289 289 289 290 290 290 290 290 290 290 290 289 289 288 289 289 289 289 288 288 288 288 288 288 289 289 289
292 292 292 292 292 292 292 292 292 292 292 292 292 292 292 292 292 292 292 292 293 293 292 292 292 292 292 293 292 293 293 293 293 293 292 292 292 292 291 291 291 290 288 287 288 289 289 289 290 290 290 289 289 289 289 289 289 289 289 289 288 288 288 288 288 289 289 289 288
292 292 292 292 292 292 292 292 292 292 292 292 292 292 292 292 292 292 292 292 292 292 292 292 292 292 292 292 292 292 292 293 293 293 292 293 292 292 292 291 290 289 288 288 288 288 288 289 289 289 289 289 289 289 289 289 289 289 289 289 289 289 289 289 289 289 289 289 288
292 292 292 291 291 291 292 292 292 292 291 291 291 291 291 291 292 292 292 292 292 292 292 292 292 292 292 292 292 292 292 292 292 292 292 292 292 292 292 292 290 289 288 287 287 287 288 289 289 289 288 288 288 288 288 289 289 289 289 289 289 289 289 289 290 289 289 289 288
292 292 291 291 291 291 292 291 291 291 291 291 291 291 291 291 291 292 292 292 292 292 292 292 292 292 292 292 292 291 291 291 291 292 292 292 292 292 291 292 290 289 289 288 288 287 287 288 288 287 287 287 287 287 288 289 288 288 288 289 289 289 289 289 290 290 290 289 289
291 291 291 291 291 291 291 291 290 290 290 290 291 291 291 291 291 291 291 291 291 291 291 291 291 292 292 291 291 291 291 291 291 291 291 291 291 291 291 291 290 290 290 289 289 290 290 290 289 288 288 287 288 288 288 288 288 288 288 288 289 289 290 290 290 290 290 290 290
291 291 291 290 290 290 290 290 290 290 290 290 290 290 290 290 290 291 291 291 291 291 291 291 291 291 291 291 291 291 291 290 290 290 290 290 290 290 290 290 290 290 290 290 292 293 294 294 293 292 291 290 289 289 289 288 289 289 289 289 289 290 290 291 291 291 290 290 290
290 290 290 290 290 290 289 289 289 289 290 290 290 290 290 290 290 290 290 290 290 290 290 290 290 291 291 291 291 290 290 290 290 290 289 289 289 289 290 290 290 290 290 291 293 294 295 296 296 295 293 291 291 290 290 290 290 290 290 290 290 291 291 291 291 292 292 292 291
290 289 289 289 289 289 289 289 289 289 289 289 289 289 289 290 290 290 290 289 290 290 290 290 290 290 291 290 290 289 289 289 289 289 288 288 288 288 289 289 290 289 289 291 293 294 295 296 296 296 295 294 292 292 292 292 292 291 291 291 291 291 291 291 292 292 293 293 292
289 289 289 289 289 289 289 289 289 289 289 289 289 289 289 289 289 289 289 289 289 289 289 289 290 290 290 289 289 289 288 288 288 288 288 288 288 288 288 289 289 289 290 292 294 295 295 296 296 296 296 295 293 291 290 291 292 292 293 293 293 293 293 293 293 293 294 293 293
288 288 288 288 288 288 288 288 289 288 289 289 289 289 289 289 288 288 288 288 288 288 288 288 289 289 289 288 288 288 288 288 288 288 288 288 288 288 288 288 289 290 291 293 294 294 295 295 296 296 296 296 294 294 293 293 293 293 294 294 294 294 294 294 294 294 294 294 294
288 288 288 288 288 288 288 288 288 288 288 289 288 288 288 288 288 288 288 288 288 288 288 288 288 288 288 288 288 288 288 288 288 288 288 287 287 287 288 288 289 289 291 293 294 294 295 295 296 296 296 296 295 294 293 294 294 294 294 294 295 295 295 295 295 295 295 295 295
288 288 287 287 287 287 288 288 288 288 288 288 288 288 287 287 287 287 287 287 287 288 288 288 287 287 287 287 287 287 287 287 287 287 287 287 287 287 288 288 288 289 290 292 293 294 295 295 295 296 296 296 296 295 294 294 294 294 294 295 295 295 295 295 295 295 295 295 295
287 287 287 287 287 287 287 287 287 288 287 287 287 287 287 287 287 287 287 287 287 287 287 287 287 286 286 287 287 287 287 287 287 287 287 287 287 287 288 288 288 289 290 292 293 294 294 295 295 296 296 296 296 295 294 294 294 294 294 295 295 295 295 295 295 295 295 295 295
287 286 286 286 286 287 287 287 287 287 287 287 287 286 286 286 286 287 287 287 287 287 286 286 286 286 286 286 286 286 286 287 287 287 288 288 287 287 287 288 288 289 291 292 293 294 294 295 295 296 296 296 296 295 294 294 294 294 294 295 295 295 295 295 295 295 295 294 294
286 286 286 286 286 286 286 287 287 287 286 286 286 286 286 286 286 286 286 286 287 287 286 286 286 286 286 286 286 286 286 287 287 287 287 287 287 287 287 287 288 289 291 292 293 294 294 295 295 296 296 296 295 294 294 294 294 294 294 294 295 295 295 295 294 294 293 293 293
285 285 285 286 286 286 286 286 286 286 286 285 285 285 286 286 286 286 286 286 286 286 286 286 286 287 286 287 286 286 286 286 286 286 286 287 287 287 287 287 288 289 291 292 293 294 294 295 295 296 296 296 295 294 294 294 294 294 294 294 295 295 295 294 293 293 292 292 293
285 285 285 285 285 286 286 285 285 285 285 285 285 285 285 285 285 286 286 286 286 286 286 286 286 286 286 286 286 286 286 286 286 286 286 287 286 286 287 287 287 289 291 292 293 293 294 295 295 296 295 295 294 294 293 294 294 294 294 294 294 294 294 294 294 293 293 292 293
285 285 285 285 285 285 285 285 285 285 284 285 285 285 285 285 285 286 286 286 286 286 286 286 286 286 286 286 286 286 286 286 286 286 286 286 286 286 286 287 287 288 290 292 293 293 294 295 295 295 295 294 293 293 293 293 293 293 294 294 294 294 294 294 294 293 292 291 292
285 285 285 285 285 285 285 285 284 284 284 284 285 285 285 285 285 286 286 286 286 285 285 285 285 285 286 286 286 286 286 286 286 286 286 286 286 286 286 287 287 288 290 292 293 293 294 295 295 295 295 294 293 293 293 293 293 293 293 293 294 294 294 294 294 294 293 291 292
285 285 285 285 284 284 284 284 284 284 284 284 284 285 285 285 285 286 286 286 286 285 285 285 285 285 286 286 286 286 286 286 287 286 286 286 286 287 287 287 287 289 290 291 292 293 294 294 295 295 295 294 293 293 293 293 293 293 293 293 293 294 294 294 294 294 293 292 294
285 285 285 284 284 284 284 284 284 284 284 284 284 284 285 285 285 286 286 286 286 286 285 285 285 285 286 286 286 285 285 286 286 286 286 286 287 288 288 288 288 288 290 291 292 293 294 294 295 295 295 294 294 294 293 293 293 293 293 293 293 293 293 294 294 293 293 293 294
285 285 285 284 284 284 284 284 284 284 285 284 284 285 285 286 286 286 286 286 286 285 285 285 285 285 286 286 286 285 285 285 286 286 286 287 287 288 288 288 288 288 289 291 292 293 294 294 295 296 296 294 294 294 294 294 293 293 292 293 293 293 292 293 293 293 293 293 293
Wind_Speed
4 4 4 4 4 4 4 4 5 5 5 5 5 6 5 5 6 6 6 6 7 7 8 8 8 8 9 9 8 7 7 8 9 10 11 12 12 12 12 12 12 12 12 12 12 12 11 11 10 9 8 8 9 10 11 10 11 12 13 13 12 13 14 16 16 17 18 19 15
4 4 4 4 4 4 4 4 4 5 5 4 5 5 5 5 6 6 7 7 7 7 7 8 9 9 10 10 9 8 8 8 9 9 10 11 12 12 12 12 12 12 12 13 12 11 10 11 10 9 8 8 9 10 11 11 12 13 14 16 13 12 12 14 15 17 18 18 16
3 3 3 3 3 3 3 4 4 5 5 5 5 5 5 5 6 6 7 7 8 8 8 8 9 10 11 11 9 8 8 9 9 9 9 10 11 12 12 12 12 13 13 13 12 11 11 11 10 9 8 8 10 11 11 12 12 13 14 16 13 11 11 11 13 14 14 13 15
3 3 3 3 4 4 4 4 5 6 6 5 5 5 5 5 5 6 7 8 9 8 8 8 9 10 10 10 10 9 8 9 9 9 10 10 11 12 12 12 12 13 13 13 13 13 13 12 10 9 9 10 12 12 11 10 12 12 12 12 11 11 11 11 11 11 11 11 14
4 3 3 4 5 5 5 5 6 6 6 5 5 5 5 5 5 6 6 7 7 8 8 9 9 10 10 10 10 10 9 9 9 9 10 11 11 12 12 12 13 13 13 13 13 14 14 13 10 8 9 10 10 11 11 12 12 12 11 10 10 10 11 11 11 10 10 11 11
5 5 5 4 5 5 5 5 6 6 6 5 6 6 6 5 5 5 6 7 8 9 10 11 10 10 11 10 10 10 10 9 9 9 10 11 11 12 12 13 13 13 12 12 13 13 13 12 9 8 9 9 10 11 13 14 13 12 11 10 10 10 10 11 11 10 11 12 13
6 6 6 6 6 5 5 5 5 5 5 5 6 8 8 8 8 8 9 8 9 9 9 9 9 9 10 10 10 10 10 10 10 10 10 10 11 12 12 12 12 12 12 12 12 12 11 10 8 8 8 9 9 11 13 13 12 12 12 12 11 10 10 12 10 10 12 15 16
6 6 7 7 6 6 6 6 5 5 5 5 7 8 10 10 10 10 10 9 8 8 8 7 8 9 10 10 10 11 11 11 10 10 10 10 11 12 12 12 12 12 13 12 12 12 11 9 8 8 9 8 8 10 12 13 13 14 14 14 12 11 10 10 10 11 12 15 17
6 6 6 6 6 6 6 6 6 6 6 7 9 9 10 10 10 10 9 8 8 8 8 8 9 10 10 10 11 11 11 10 11 11 11 10 11 12 12 12 12 12 12 12 12 12 11 9 8 9 9 9 9 10 11 13 13 14 14 14 13 13 12 11 12 13 14 15 16
7 7 7 7 7 7 6 7 6 7 7 9 10 10 10 10 9 9 8 8 8 9 9 9 9 9 10 10 10 10 10 10 10 11 11 11 12 12 12 12 12 12 12 12 11 11 11 9 9 10 11 10 12 13 13 13 14 14 14 12 13 14 15 15 15 15 15 15 16
8 8 7 7 8 8 7 8 8 7 8 8 10 10 10 9 9 8 8 8 8 10 10 9 9 9 10 10 10 10 10 9 9 10 11 12 12 13 13 12 13 13 13 12 11 10 9 9 10 12 13 12 13 13 14 14 14 15 15 14 14 15 16 17 16 15 15 15 16
8 8 8 8 8 8 8 8 8 8 8 9 10 10 9 9 9 8 8 8 9 10 10 9 9 9 9 9 9 9 10 10 10 10 11 12 13 13 13 13 13 13 13 13 11 10 9 10 12 13 15 15 12 12 12 14 14 15 15 16 16 16 16 17 17 15 14 15 16
8 8 8 8 8 8 8 8 8 8 9 9 10 9 9 9 9 8 8 9 9 10 9 9 8 8 9 9 9 9 10 10 10 10 11 12 12 13 13 13 13 13 12 12 11 11 11 12 13 14 15 15 13 12 13 14 14 14 15 16 16 17 17 18 17 16 16 16 16
8 8 8 8 8 8 8 8 8 8 8 10 10 9 9 9 9 9 8 9 9 10 10 9 8 8 8 9 9 10 10 10 11 11 12 12 12 13 13 13 13 12 11 11 11 12 12 13 13 14 15 16 15 15 14 14 14 14 15 16 17 17 18 18 17 17 16 17 17
8 8 8 8 8 8 8 8 7 7 8 9 9 9 9 9 9 9 9 9 9 9 9 9 9 9 9 9 10 10 10 10 11 11 12 13 13 13 13 13 13 12 11 11 12 12 13 13 14 14 15 15 16 16 15 15 14 14 15 15 16 17 18 18 17 16 16 16 16
8 9 9 8 8 8 8 8 7 7 8 9 10 9 9 9 9 9 9 10 9 9 9 10 10 10 10 10 10 10 10 10 10 11 12 13 13 13 13 13 13 12 12 12 12 13 13 13 13 14 14 14 15 15 15 15 15 15 16 16 17 17 18 18 17 16 16 15 16
9 9 9 9 9 9 9 8 8 8 9 10 10 10 10 9 9 9 10 10 10 10 11 11 11 11 11 11 11 10 10 10 11 11 12 13 13 13 13 13 13 12 12 12 13 13 14 14 14 13 13 13 14 14 15 15 15 16 16 17 17 17 17 17 16 15 15 15 16
10 10 9 9 9 10 10 10 10 10 10 11 11 11 10 10 10 10 11 11 11 11 12 13 12 11 11 12 11 11 10 11 12 12 13 13 13 13 13 13 13 12 12 12 13 14 14 14 14 14 13 13 13 14 14 14 15 16 16 17 17 17 16 16 15 15 15 15 16
10 10 10 10 10 10 11 11 11 11 11 11 11 11 11 11 11 11 11 12 12 12 12 13 12 12 12 13 12 12 11 12 13 14 14 14 14 14 14 14 13 12 12 12 13 13 14 14 14 14 14 14 14 14 14 14 15 16 16 16 16 16 16 15 15 15 15 16 16
10 10 10 10 10 11 11 12 12 12 12 11 12 12 12 12 12 12 12 13 12 12 12 13 13 13 13 13 13 13 12 12 13 14 15 14 14 14 14 14 13 13 12 12 12 13 13 14 14 14 15 15 15 15 16 16 16 16 16 15 15 15 15 15 15 15 16 16 16
11 10 10 10 10 11 11 12 12 12 12 12 12 13 13 13 13 13 13 13 13 13 12 13 13 13 14 14 14 14 14 12 13 14 15 14 14 14 13 13 13 12 12 11 12 12 13 13 14 14 14 15 15 15 15 16 16 16 16 15 15 15 15 15 16 16 16 16 16
11 10 10 10 10 11 11 12 12 12 12 12 12 13 13 13 13 13 13 13 13 13 13 13 13 14 14 14 14 15 14 13 14 14 14 14 14 14 13 13 13 12 12 12 12 12 13 13 14 14 14 14 15 15 15 16 16 16 16 16 16 16 16 16 16 16 16 16 16
11 11 10 10 10 11 12 12 12 12 12 12 13 13 13 13 13 13 13 13 12 13 13 13 13 13 14 14 15 15 15 15 15 15 15 15 14 14 13 12 12 13 13 12 11 11 12 12 13 13 13 13 14 15 16 16 16 15 16 17 17 17 16 17 17 17 16 16 16
11 11 10 10 11 11 12 12 12 12 12 13 13 13 13 13 13 13 13 13 13 13 13 12 12 13 14 15 15 15 15 16 16 16 16 15 15 14 13 12 12 12 12 10 11 11 12 12 11 11 11 11 12 13 14 14 14 15 15 16 17 17 17 17 17 17 17 17 17
11 11 11 11 11 12 12 12 12 12 13 13 13 13 13 14 13 13 13 14 14 14 14 14 14 14 14 14 15 15 15 15 15 15 15 15 15 14 13 12 12 11 10 10 14 18 20 18 15 12 11 10 11 11 12 13 14 14 15 15 16 17 17 18 18 18 18 18 17
12 12 12 12 12 12 12 12 12 13 13 13 13 13 13 13 13 14 14 14 14 14 14 14 14 14 14 14 15 15 14 13 13 13 14 14 15 15 14 13 11 10 10 11 17 21 24 25 23 20 16 12 11 11 12 12 13 13 14 15 15 15 16 16 17 17 17 17 17
12 12 12 12 12 12 13 12 12 13 13 13 13 14 14 14 13 14 14 15 15 15 14 14 13 14 14 14 14 14 14 13 13 13 13 14 15 15 15 14 12 10 10 14 20 23 25 26 26 25 22 16 13 12 12 12 13 13 13 13 14 14 15 16 17 17 17 17 18
12 12 13 13 13 13 13 13 13 13 13 14 14 14 14 14 14 14 15 15 15 15 14 13 12 12 11 11 13 14 14 14 14 13 13 14 15 16 16 15 13 12 13 18 23 25 26 27 27 27 25 21 16 13 12 13 13 13 13 13 14 15 16 16 16 16 16 17 16
12 12 13 13 13 13 13 13 13 14 14 14 14 14 14 14 15 15 15 16 16 15 13 12 11 10 11 12 14 15 15 15 14 14 14 15 15 16 16 16 15 16 18 23 25 27 27 27 27 27 27 25 17 13 11 12 12 12 12 12 13 14 15 15 15 15 15 15 14
12 12 12 13 13 13 14 14 14 14 14 14 14 14 15 15 15 15 16 16 16 15 13 12 12 13 14 15 15 15 15 15 14 14 14 15 16 16 17 17 16 16 18 23 26 27 28 28 27 27 27 26 21 15 12 11 12 12 11 11 12 13 15 15 16 16 15 14 14
12 12 12 13 13 14 14 14 14 14 14 14 14 14 15 15 15 16 15 15 15 15 15 15 15 16 17 16 16 16 16 15 15 14 14 15 16 17 18 18 17 17 18 23 26 27 27 27 27 27 27 27 21 16 12 11 12 12 11 11 13 14 14 14 14 15 15 16 16
12 12 12 13 13 14 14 14 14 14 15 15 15 15 15 15 15 15 15 15 15 16 16 16 16 17 17 17 17 17 16 16 16 15 15 15 17 17 18 18 17 17 19 23 25 27 27 27 27 27 27 27 22 17 14 13 13 12 13 13 14 15 15 13 13 14 16 17 17
11 12 12 13 14 14 14 14 15 15 15 15 15 15 15 16 15 15 15 14 15 15 16 17 17 17 17 17 17 17 17 17 16 17 17 17 18 18 19 18 17 17 20 23 26 27 27 27 27 27 27 27 22 17 14 13 12 11 11 12 14 15 16 16 15 16 16 17 16
11 11 12 13 14 14 15 15 15 15 15 16 16 16 15 15 15 15 15 15 15 15 15 16 16 16 17 17 17 17 17 16 16 16 17 17 18 19 19 17 14 16 20 24 26 27 28 28 28 28 28 27 20 16 13 13 12 11 12 13 14 15 15 15 15 15 15 14 13
11 11 12 13 14 15 15 15 15 16 16 16 16 16 15 15 15 15 16 16 16 16 16 16 16 16 16 16 16 16 17 17 17 17 17 17 18 19 20 19 17 19 22 25 27 28 28 28 28 28 27 24 17 13 11 12 12 13 13 14 15 15 15 15 14 13 12 12 11
10 12 13 14 15 15 16 16 16 16 16 17 17 17 16 16 15 15 15 16 17 17 17 16 16 16 16 16 16 16 16 17 17 18 17 17 18 19 20 20 19 21 23 25 27 27 27 28 28 27 26 21 14 11 10 10 11 12 13 14 15 15 15 15 13 12 11 10 11
11 12 13 14 15 15 16 16 16 17 17 17 17 17 17 17 16 16 15 15 16 17 17 17 17 17 17 17 16 16 16 16 17 18 18 18 19 19 20 21 20 21 22 24 26 27 27 27 27 27 24 18 13 11 10 10 9 10 12 14 14 15 14 13 12 11 10 10 11
11 12 13 14 15 15 16 16 16 17 17 18 17 17 17 17 16 16 15 15 15 16 17 17 17 17 17 18 18 18 17 17 17 18 19 19 19 19 20 21 21 20 21 22 25 26 27 27 28 27 23 17 13 11 10 9 9 10 11 12 13 13 12 10 9 9 10 10 12
12 12 13 13 14 15 16 16 16 17 17 18 17 17 17 17 16 15 15 15 15 16 17 18 18 18 18 18 18 19 19 18 18 18 19 19 19 20 21 21 21 20 20 22 25 26 27 27 27 27 24 19 14 11 9 9 10 11 11 11 11 10 10 9 8 8 9 10 14
12 12 12 13 14 15 15 16 16 16 16 16 17 17 17 17 16 16 16 15 15 16 16 18 19 19 19 19 19 19 20 20 19 18 19 19 20 21 22 21 21 20 21 23 25 26 27 27 27 27 24 18 13 10 9 9 10 11 11 10 8 8 8 8 7 7 8 9 12
12 12 13 13 13 14 15 16 17 16 16 16 17 17 16 16 16 16 16 15 16 16 16 16 18 19 19 19 18 19 20 21 20 19 19 20 20 20 21 20 20 20 20 21 23 25 26 27 27 26 24 18 12 9 8 8 9 10 11 10 8 7 7 8 7 7 8 8 9
Wind_Direction
258 257 258 259 259 260 263 267 268 267 267 268 274 278 281 282 283 284 283 281 278 276 275 274 272 272 273 271 263 255 247 243 239 239 239 240 241 241 240 240 240 240 241 242 242 242 241 239 237 237 237 237 239 240 239 238 237 237 237 236 238 238 239 239 240 240 239 239 239
260 258 259 263 266 268 270 273 273 273 270 267 270 276 281 284 285 286 286 284 280 278 278 277 275 274 274 273 267 261 255 252 247 245 244 245 245 245 245 245 243 242 241 242 242 243 242 239 237 237 237 237 238 239 239 236 236 237 238 237 237 238 238 239 239 240 240 240 239
271 268 264 262 264 266 269 273 274 275 275 275 276 280 283 285 285 286 286 285 285 284 283 281 279 278 276 274 271 265 260 257 255 253 252 252 251 249 248 248 247 246 244 244 242 242 242 240 238 237 237 237 236 237 238 237 235 236 237 237 237 236 236 238 238 239 239 239 237
278 272 266 262 257 256 259 267 278 282 284 286 288 288 286 284 284 284 286 288 289 287 284 282 283 282 280 277 274 271 267 264 262 260 258 257 255 253 250 249 249 248 246 245 244 244 243 241 240 239 239 239 239 239 238 237 234 235 236 236 236 235 236 237 237 237 237 238 236
291 277 267 266 265 265 266 270 279 285 290 295 297 294 290 285 284 286 289 292 290 289 288 288 288 286 284 281 279 276 274 270 266 263 261 260 258 255 252 249 248 248 247 246 245 245 244 243 243 242 242 241 240 239 239 239 238 238 238 238 236 235 235 237 237 236 236 237 236
303 295 286 277 274 273 273 272 274 280 286 294 294 293 293 292 291 291 291 291 291 292 293 292 289 286 284 281 278 276 274 271 266 263 261 261 260 259 256 252 250 249 250 249 248 248 247 245 247 247 246 245 245 244 243 242 242 242 241 241 238 237 237 238 238 237 238 239 238
296 295 293 289 283 281 280 280 280 282 285 289 289 290 291 293 294 293 291 291 293 294 294 293 289 286 284 283 279 276 274 272 270 266 263 263 263 263 261 259 257 255 255 255 254 254 252 249 251 252 251 249 249 248 246 244 244 244 245 245 242 240 240 240 240 240 240 241 241
287 287 287 288 286 285 285 286 289 291 292 291 291 291 292 293 294 293 292 293 291 291 290 291 288 285 283 282 280 279 278 278 277 275 272 269 269 268 267 266 265 263 261 260 260 260 259 256 255 255 254 252 253 251 249 246 245 245 246 247 247 245 241 241 240 240 240 242 241
295 293 291 291 289 288 288 289 289 291 292 293 292 292 293 293 292 291 291 290 288 288 288 288 287 285 283 279 278 279 279 280 281 280 279 276 274 272 271 270 268 267 265 263 262 262 261 260 257 256 255 253 253 253 252 248 246 245 246 248 250 248 245 243 241 241 241 241 241
303 304 304 303 300 299 299 299 295 292 291 292 293 293 293 293 291 289 287 286 288 289 288 286 287 285 283 279 277 276 276 277 278 279 278 277 274 272 271 270 270 269 269 268 266 264 262 259 258 257 256 254 255 255 255 251 249 247 247 247 249 250 249 246 244 243 242 241 241
301 302 304 304 305 307 309 308 304 301 298 295 295 295 295 294 291 289 286 286 288 287 285 284 284 283 281 279 277 276 275 274 274 275 275 275 273 272 271 271 270 270 270 271 270 269 266 262 260 259 258 256 256 256 256 253 251 249 249 250 250 251 251 250 247 246 245 244 243
299 300 301 301 304 307 310 309 307 305 302 299 298 298 297 295 292 290 288 287 285 284 284 284 280 278 277 278 278 278 277 275 273 273 273 273 272 271 271 270 269 269 269 270 270 269 267 264 262 262 261 259 257 257 256 254 252 251 251 252 252 252 252 251 249 248 247 247 246
298 299 301 302 305 307 307 306 304 302 301 299 298 298 298 297 295 293 291 288 286 287 288 288 282 277 275 275 277 277 277 277 274 273 272 272 273 272 272 270 269 268 268 268 268 266 265 264 262 262 262 262 260 258 257 255 254 253 253 254 253 253 252 252 251 250 250 249 248
298 298 299 302 304 305 304 303 301 300 298 297 297 297 297 298 297 296 293 290 288 289 290 291 287 281 277 275 276 276 276 277 276 274 273 273 274 274 274 273 271 269 268 268 267 265 263 263 262 261 262 263 262 261 259 257 255 254 254 255 254 254 254 254 253 252 251 249 249
298 298 298 300 301 301 300 299 297 296 295 295 296 297 298 299 299 298 296 292 290 289 290 290 289 287 283 279 277 276 276 276 276 275 275 275 275 274 274 273 272 270 268 268 267 265 262 261 262 262 262 262 263 263 262 259 257 256 255 254 255 255 255 256 255 253 251 250 250
299 299 299 300 299 298 297 296 295 295 295 295 297 299 299 299 300 300 298 295 293 292 291 290 290 291 290 286 282 279 278 277 275 275 275 276 276 275 274 273 272 270 268 268 268 266 264 262 262 262 261 261 262 262 262 261 259 258 256 255 256 256 256 257 256 254 252 251 251
300 300 300 300 299 297 296 295 296 296 296 297 299 300 300 300 301 300 299 298 297 296 295 293 293 293 293 292 289 287 284 282 279 278 277 277 277 276 275 273 272 270 269 268 268 268 267 266 265 263 262 260 261 261 261 261 260 259 258 258 257 257 257 257 256 255 253 253 252
302 301 301 301 299 298 297 297 297 298 298 299 300 300 300 300 300 299 298 297 296 295 294 293 293 292 292 291 291 289 287 286 283 281 280 279 278 276 275 273 272 270 269 267 267 268 269 268 268 266 264 262 261 261 260 260 260 260 259 259 258 258 257 256 255 255 254 254 254
302 302 302 302 300 299 299 299 300 300 300 300 300 301 300 300 298 298 297 296 294 293 292 292 293 292 291 290 289 288 287 286 284 283 281 279 278 276 274 273 272 270 268 267 267 267 268 268 268 267 266 265 263 262 261 261 261 260 260 260 259 258 257 256 255 254 254 253 254
301 301 301 301 301 300 300 301 301 301 301 301 301 300 299 299 297 296 295 295 295 294 292 292 292 292 291 290 289 288 287 285 284 283 281 280 278 275 274 273 272 271 269 267 267 267 267 267 267 267 266 265 265 264 264 263 263 262 262 261 260 258 257 256 254 254 253 253 252
299 299 300 301 301 300 300 300 300 300 300 300 299 299 298 297 296 295 293 293 294 294 293 291 290 291 291 291 290 289 287 286 285 283 282 281 278 275 274 273 273 272 270 267 267 266 266 267 266 266 266 265 265 264 264 265 265 264 263 262 261 259 258 256 255 254 253 251 250
300 301 301 301 300 299 299 299 300 300 299 299 298 297 296 296 295 294 293 293 294 293 292 291 290 290 289 289 289 289 288 287 285 284 282 281 279 277 275 274 274 273 272 270 268 267 267 267 266 265 265 265 265 264 263 264 265 265 265 263 262 261 259 257 256 254 253 250 249
303 304 303 302 300 299 299 300 300 299 298 298 297 297 296 296 295 295 295 294 293 292 292 291 291 290 289 289 288 288 287 287 285 283 282 281 280 278 277 276 275 274 273 271 269 268 268 268 267 265 263 262 262 262 262 262 262 263 263 263 262 261 259 257 256 254 252 250 249
305 305 305 303 302 301 301 300 300 300 299 298 298 298 297 297 297 297 296 295 294 293 292 292 292 291 291 289 288 286 285 285 284 283 282 281 280 279 279 277 275 273 273 271 270 269 269 269 267 265 261 257 257 258 259 258 257 258 259 260 260 260 259 258 256 253 251 250 248
306 305 305 304 303 302 302 302 301 300 299 298 298 297 297 297 298 298 297 297 296 295 294 293 293 292 291 290 288 286 284 283 283 283 283 283 282 281 281 280 278 276 274 272 273 274 274 275 274 272 268 264 261 260 258 256 255 255 255 256 258 259 260 260 257 254 251 249 247
307 306 306 305 304 304 303 302 301 300 299 298 298 298 298 298 298 298 298 298 297 297 296 295 294 293 293 291 290 288 286 285 284 283 284 285 285 284 283 281 280 278 276 275 277 278 280 280 280 280 278 275 271 269 267 264 259 256 255 256 257 259 260 261 259 256 253 250 247
308 307 306 306 306 305 303 302 301 301 300 300 300 299 299 299 299 299 299 298 297 297 296 295 294 294 293 292 291 289 288 287 287 285 284 284 285 285 285 284 282 279 276 276 280 282 283 284 284 284 283 281 278 275 274 273 270 266 262 261 260 260 260 260 260 259 257 254 250
307 307 307 307 306 305 304 304 303 303 302 302 301 300 300 300 299 299 298 298 298 298 297 296 294 294 293 292 291 290 289 288 288 287 285 284 283 283 283 284 283 280 279 280 283 285 287 287 288 287 287 285 283 279 276 275 273 271 269 266 265 264 263 262 262 262 261 259 255
306 306 306 306 306 305 305 305 305 304 303 302 301 301 300 300 298 298 298 298 299 299 298 296 296 295 294 292 292 291 290 289 288 287 286 285 284 283 283 283 283 282 282 285 287 288 289 290 289 289 288 287 284 280 276 274 273 272 270 268 267 266 266 265 265 266 265 263 260
305 305 305 305 305 305 305 305 304 304 303 302 301 301 300 299 298 298 298 299 298 297 296 295 295 294 292 291 291 291 290 289 288 287 286 285 285 284 284 284 283 283 284 287 288 289 290 290 290 289 288 287 284 281 276 274 273 273 272 270 268 268 268 269 269 270 270 269 269
304 304 304 304 304 304 304 304 304 303 303 302 301 300 299 298 298 297 297 297 296 295 295 294 292 291 290 290 290 290 289 289 289 288 286 285 284 285 285 285 284 284 285 287 288 289 290 290 290 290 289 288 286 283 278 275 274 273 272 272 272 272 273 273 273 273 274 275 276
302 302 303 304 303 303 303 304 303 303 302 301 300 299 298 297 296 295 296 296 296 296 296 295 293 292 291 292 291 290 289 290 289 288 287 286 285 286 286 286 286 285 286 288 289 290 291 291 291 290 290 290 288 284 280 277 276 274 273 272 272 273 273 273 274 275 276 276 275
301 302 302 302 303 303 303 304 303 303 302 302 300 298 297 296 295 295 296 295 295 295 295 295 294 294 293 294 293 292 291 290 289 288 288 287 287 287 287 287 287 287 287 289 290 291 292 292 292 291 291 291 289 286 281 278 276 274 272 271 271 272 273 274 274 274 274 274 273
301 302 302 302 302 303 304 304 304 304 303 302 300 298 297 296 296 297 297 297 296 295 294 293 293 292 292 292 292 292 292 291 290 289 289 289 288 288 287 287 286 287 289 290 291 292 292 293 292 292 292 292 290 286 282 278 276 273 272 272 272 273 274 273 273 272 271 271 271
300 301 302 302 303 304 304 305 304 304 303 302 300 299 298 297 296 297 298 298 297 296 294 292 292 291 291 290 290 290 290 291 291 290 290 289 289 289 288 288 287 287 289 290 292 292 293 293 293 293 292 292 290 286 281 278 275 274 273 273 273 273 272 271 270 269 267 266 266
299 300 302 303 303 304 304 304 304 303 302 301 301 301 300 299 298 298 298 299 298 296 294 294 293 293 293 293 291 291 290 291 291 291 291 291 290 290 289 289 289 289 290 291 292 292 293 293 293 293 293 293 289 284 280 277 275 274 273 273 273 272 272 271 270 267 264 262 263
298 300 301 302 302 303 303 304 303 303 302 301 301 302 302 302 301 300 300 300 298 297 296 295 295 295 295 295 294 293 292 291 292 292 292 292 291 291 290 290 290 290 290 291 292 292 293 293 293 294 294 292 289 284 281 277 275 274 274 274 274 274 274 273 271 267 264 261 261
299 300 300 300 301 301 302 302 302 302 302 302 302 302 302 302 302 301 301 301 299 298 297 297 297 297 297 297 296 295 294 293 293 292 292 292 291 291 291 291 290 290 290 290 291 292 293 293 294 294 294 291 288 285 282 278 277 276 276 277 277 276 274 272 270 268 265 261 261
299 299 298 298 299 299 300 301 301 301 301 301 302 302 302 302 301 301 300 300 298 297 297 297 297 298 298 299 298 297 296 295 294 293 292 292 291 290 290 290 290 290 290 290 291 292 292 293 293 293 293 290 287 284 280 278 278 278 278 279 278 276 274 271 269 268 266 263 264
298 298 297 296 297 298 299 299 300 300 300 300 301 302 302 302 300 300 300 299 298 297 297 297 297 298 299 300 299 299 298 297 296 294 292 290 289 289 289 289 289 289 289 289 290 290 291 291 291 292 291 289 285 281 278 277 279 280 281 280 278 277 276 273 270 268 267 266 266
297 297 297 296 296 297 298 299 299 299 299 299 299 300 300 300 300 300 301 300 300 299 298 297 297 298 299 300 299 299 298 297 295 293 291 290 289 288 288 288 288 288 287 287 288 288 289 290 290 290 290 288 284 280 278 279 282 284 285 284 281 280 279 278 275 271 268 267 265